TITAN 3C TRANSTAGE R/B, 3432

Orbit data source: Space-Track

TITAN 3C TRANSTAGE R/B, 3432 is space debris in GEO originally from a launch on Thu, 26 Sep 1968 UTC launched from the Air Force Eastern Test Range (AFETR). Debris objects in space refer to the collection of defunct objects orbiting the Earth. Examples of debris include non-operational satellites, rocket bodies, and fragments generated from explosions, collisions, or faulty payload assembly.

Not visible in the next 10 days
Identifier
3432, 1968-081E
Orbit
GEO
Last TLE update
11 hours ago
Origin
Manufacturer
Martin Marietta
Mission
Spacecraft
Bus & Motor
TRANSTAGE, Unknown motor
Mass
~1,950 kg wet, ~1,950 kg dry
Launch date (UTC)
1968-09-26 (57 years ago)
Launch vehicle
Unknown
Launch site
Air Force Eastern Test Range (AFETR)
Object type
Payload
Rocket body
Debris
Shape & HBR
Cyl + 2 Nozzle, 4.6 m
Radar Cross Section
14.974 m², Large (>1 m²)

Expand to show TLE details & history

TLE from 11 hours ago
0 TITAN 3C TRANSTAGE R/B
1 03432U 68081E   25181.54539103 -.00000080  00000-0  00000-0 0  9991
2 03432   1.3082  34.6403 0094009 286.3011 291.9143  1.01515981118416
Epoch: 2025-06-30T13:05Z
TLE epoch observation values (Epoch: 2025-06-30T13:05:21.785Z)
Latitude
-0.80647°
Longitude
136.66634°
Altitude
35,295.639 km
Speed
3.098 km/s
True Right ascension
16h 47m 26s
True Declination
0° 48' 20"
Sunlit
Object was in daylight at epoch
Visualization orbit readout
Latitude
0.67913°
Longitude
-49.97974°
Altitude
35,535.947 km
Speed
3.08 km/s
Apparent Right ascension
03h 57m 35s
Apparent Declination
-4° 37' 49"
Sunlit
Object is in daylight
Visualization observer readout
Local Sidereal Time
11:57:08
Azimuth
286.547° WNW
Elevation
-25.64°
Doppler factor
1
Orbital elements
Apogee altitude
35,835.598 km
Perigee altitude
35,049.296 km
Semi-major axis
41,820.584 km
Eccentricity
0.0094
Inclination
1.3082°
RAAN
34.6403°
Arg. of periapsis
286.3011°
True anomaly
Unknown
Mean anomaly
291.9143°
Eccentric anomaly
Unknown
Mean motion
0.25378 °/min
Orbital period
1,418.55 mins
BSTAR
0
Loading historical data...
3432 neighbors
Loading maneuver chart data...
Loading SW <> Apogee altitude chart data...

TITAN 3C TRANSTAGE R/B Visibility

Observer location: undefined°, undefined°

TITAN 3C TRANSTAGE R/B is likely not visible in the next few days
Span
Click to sort rows by Start time (UTC) header in descending order
Start Az.
Max El. time (UTC)
Max El. Az.
Max El.
End time (UTC)
End Az.
|